Miscellaneous Local Product
Issued by NWS Hastings, NE

Home | Current Version | Previous Version | Text Only | Print | Product List | Glossary Off
Versions: 1 2 3 4 5 6 7 8 9 10 11 12 13 14 15 16 17 18 19 20 21 22 23 24 25 26 27 28 29 30 31 32 33 34 35 36 37 38 39 40 41 42 43 44 45 46 47 48 49 50

000
AXUS43 KGID 222102
MISGRI

GID CWA HOURLY WEATHER ROUNDUP
NATIONAL WEATHER SERVICE HASTINGS NE
300 PM CST MON DEC 22 2014

NOTE: "FAIR" INDICATES FEW OR NO CLOUDS BELOW 12,000 FEET WITH NO
SIGNIFICANT WEATHER AND/OR OBSTRUCTIONS TO VISIBILITY.

...SOUTH CENTRAL NEBRASKA...

CITY           SKY/WX    TMP DP  RH WIND       PRES   REMARKS
GRAND ISLAND   CLOUDY    44  31  60 NW23G31   29.47R
HASTINGS       PTSUNNY   47  30  51 NW22G28   29.47R
KEARNEY        PTSUNNY   46  28  49 NW20G28   29.48S
ORD            CLOUDY    41  31  67 NW28G35   29.46
YORK           CLOUDY    45  36  70 NW20G25   29.44S
AURORA         CLOUDY    45  33  63 NW25      29.45S
LEXINGTON      PTSUNNY   48  29  48 NW23      29.50F
HOLDREGE       MOSUNNY   48  28  44 NW26G33   29.49S
HEBRON         CLOUDY    47  33  57 NW17G31   29.45S

...NEBRASKA PANHANDLE...

CITY           SKY/WX    TMP DP  RH WIND       PRES   REMARKS
CHADRON        MOSUNNY   41  22  46 NW30G41   29.59R
ALLIANCE       MOSUNNY   40  23  50 NW26G33   29.56F WCI  29
SCOTTSBLUFF    PTSUNNY   40  25  55 NW28G39   29.64R WCI  29
SIDNEY         MOSUNNY   39  23  52 NW22      29.63R WCI  29

...WESTERN AND NORTH CENTRAL NEBRASKA...

CITY           SKY/WX    TMP DP  RH WIND       PRES   REMARKS
VALENTINE      FLURRIES  35  32  88 NW12      29.49R WCI  27
AINSWORTH      LGT RAIN  36  32  86 NW14G22   29.48S WCI  27
ONEILL         CLOUDY    39  36  87 NW20G28   29.45R WCI  29
BROKEN BOW     PTSUNNY   44  31  60 NW18      29.48R
IMPERIAL       MOSUNNY   45  22  40 NW28G37   29.58F
NORTH PLATTE   CLOUDY    45  23  42 NW23G35   29.53S
MCCOOK         MOSUNNY   50  24  36 NW29G37   29.54F

...EASTERN NEBRASKA...

CITY           SKY/WX    TMP DP  RH WIND       PRES   REMARKS
NORFOLK        CLOUDY    41  36  82 NW15G24   29.42R
SO SIOUX CITY  LGT RAIN  42  40  92 N3        29.41S
TEKAMAH        LGT RAIN  43  40  89 N6        29.40F FOG
COLUMBUS       CLOUDY    43  36  75 NW15      29.44S
ALBION         CLOUDY    41  34  75 NW16G28   29.44R
OMAHA EPPLEY   LGT RAIN  43  42  97 SE6       29.41F FOG
OFFUTT AFB     LGT RAIN  43  42  96 SW3       29.39S
MILLARD        RAIN      43  41  92 NW6       29.40S
LINCOLN        CLOUDY    44  39  82 NW15      29.43F
NEBRASKA CITY  RAIN      42  42 100 NW9       29.40S
BEATRICE       CLOUDY    45  40  85 NW15G21   29.44R
FALLS CITY     LGT RAIN  45 N/A N/A NW15      29.41R

...NORTHERN KANSAS...

CITY           SKY/WX    TMP DP  RH WIND       PRES   REMARKS
GOODLAND       MOSUNNY   45  21  38 NW25G37   29.62F
HILL CITY      SUNNY     51  25  36 NW17G32   29.55S
NORTON         PTCLDY    48  19  32 NW23G29   29.52S
PHILLIPSBURG   SUNNY     55  27  33 W18G33    29.51S
SMITH CENTER   SUNNY     50  28  43 NW30G36   29.50S
BELOIT         PTSUNNY   52  32  46 NW17G24   29.49S
HAYS           SUNNY     54  27  35 NW17G29   29.54R
RUSSELL        MOSUNNY   53  25  33 NW28G36   29.51F
CONCORDIA      PTSUNNY   50  35  56 NW16G29   29.47S
SALINA         PTSUNNY   52  35  52 NW15      29.50F
TOPEKA         CLOUDY    48  43  82 W12       29.46R



USA.gov is the U.S. government's official web portal to all federal, state and local government web resources and services.